FLOCK 3K-1 (43894 NORAD) Tracking and Keplerian Element Data

This shows tracking and keplerian element data for the satellite.

Feedback or suggestion? Click here.




ElementValue
Catalog43894
NameFLOCK 3K-1
Epoch Orbit458
Epoch Day26.16540844
Epoch Year2019
RAAN295.2429
Inclination97.2993
Eccentricity0.0025565
Argument of Perigee139.5718
Mean Anonmoly220.7426
Mean Motion15.23450514
Decay Rate1.473E-05
L11 43894U 18111U 19026.16540844 .00001473 00000-0 64222-4 0 9995
L22 43894 97.2993 295.2429 0025565 139.5718 220.7426 15.23450514 4589

Live tracking and technical data element details for FLOCK 3K-1 (NORAD 43894). FLOCK 3K-1 can be tracked NOW for your location showing map with azimuth and elevation plus other details from your city location.

Track the satellite on the map from your city or location and see movement details for azimuth, elevation, latitude, longitude, range, height, and movement on the map or in text.







IsCatalogInMostPopularTable: catalog: 43894, numindb: 125
Update: records affected: 1



GetName: 43894 FLOCK 3K-1

Hit Count: updated at: Fri, 19 Jul 2019 23:01:23 GMT